Hourly Data Report for July 07, 2016

TORONTO CITY
ONTARIO

43°40'00.000" N
79°24'00.000" W
112.50 m
6158355
71508
XTO

Download Data

Hourly Data (July 2016)
Hourly Data Report for July 7, 2016
TIME
LST
Temp Definition
°C
Dew Point Definition
°C
Rel Hum Definition
%
Precip. Amount Definition
mm

Wind Dir Definition
10's deg

Wind Spd Definition
km/h
Visibility Definition
km
Stn Press Definition
kPa
Hmdx Definition


Wind Chill Definition


Weather Definition


00:00 25.9 18.5 64 0.0 LegendMM LegendMM   99.50 32   LegendNANA
01:00 24.4 18.4 69 0.0 LegendMM LegendMM   99.46 31   LegendNANA
02:00 23.2 18.4 75 0.0 LegendMM LegendMM   99.43 30   LegendNANA
03:00 23.7 19.1 76 0.0 LegendMM LegendMM   99.39 31   LegendNANA
04:00 22.9 18.4 76 0.0 LegendMM LegendMM   99.40 29   LegendNANA
05:00 21.9 18.6 82 0.0 LegendMM LegendMM   99.40 28   LegendNANA
06:00 21.7 18.7 83 0.0 LegendMM LegendMM   99.39 28   LegendNANA
07:00 23.2 19.1 78 0.0 LegendMM LegendMM   99.46 30   LegendNANA
08:00 26.1 19.8 69 0.0 LegendMM LegendMM   99.49 34   LegendNANA
09:00 27.3 19.7 63 0.0 LegendMM LegendMM   99.53 35   LegendNANA
10:00 28.1 20.0 61 0.0 LegendMM LegendMM   99.53 36   LegendNANA
11:00 28.5 20.1 60 0.0 LegendMM LegendMM   99.57 36   LegendNANA
12:00 29.8 20.5 57 0.0 LegendMM LegendMM   99.53 38   LegendNANA
13:00 28.1 20.1 62 0.0 LegendMM LegendMM   99.48 36   LegendNANA
14:00 23.3 21.1 87 4.8 LegendMM LegendMM   99.49 32   LegendNANA
15:00 28.1 20.7 64 0.0 LegendMM LegendMM   99.48 36   LegendNANA
16:00 28.6 20.0 60 0.0 LegendMM LegendMM   99.49 36   LegendNANA
17:00 29.0 19.5 57 0.0 LegendMM LegendMM   99.49 36   LegendNANA
18:00 29.0 19.8 58 0.0 LegendMM LegendMM   99.48 36   LegendNANA
19:00 29.0 17.8 51 0.0 LegendMM LegendMM   99.50 35   LegendNANA
20:00 28.4 17.0 50 0.0 LegendMM LegendMM   99.56 34   LegendNANA
21:00 26.9 17.6 57 0.0 LegendMM LegendMM   99.63 33   LegendNANA
22:00 25.8 17.4 60 0.0 LegendMM LegendMM   99.66 31   LegendNANA
23:00 24.8 17.6 64 0.0 LegendMM LegendMM   99.64 31   LegendNANA

Notes on Data Quality.

Legend

  • E = Estimated
  • M = Missing
  • NA = Not Available*
  • [empty] = Indicates an unobserved value
Date modified: